[[{"header":{"parameterUnit":"m.s-1","parameterCategory":1,"la1":30.2991,"la2":30.254,"lo1":-89.0895,"lo2":-89.0444,"dy":0.0017,"dx":0.0017,"nx":28,"ny":28,"refTime":"2025-02-11T03:00:00:Z","depth":0,"parameterNumber":2,"parameterNumberName":"U-component_of_WINDS"},"data":[0,0,0,0,0,0,0,0,0,0,0,0,0,0,0,0,0,0,0,0,0,0,0,0,0,0,0,0,0,0,0,0,0,0,0,0,0,0,0,0,0,0,0,0,0,0,0,0,0,0,0,0,0,0,0,0,0,0,-3.0976,-3.0976,0,-3.1002,-3.1002,-3.1002,-3.0937,-3.0935,-3.0933,-3.0931,-3.0962,-3.0965,-3.0968,0,0,0,0,0,0,0,0,0,0,0,0,0,-3.0875,-3.0878,-3.0976,-3.0976,-3.0976,-3.1002,-3.1002,-3.1002,-3.0938,-3.0935,-3.0933,-3.0931,-3.0962,-3.0965,-3.0968,0,0,0,0,0,0,0,0,0,0,0,0,0,-3.0912,-3.0878,-3.0976,-3.0947,-3.0945,-3.1001,-3.1002,-3.1002,-3.0938,-3.0935,-3.0932,-3.0929,-3.0961,-3.0964,-3.0969,-3.1055,0,0,-3.0981,-3.0983,0,0,0,0,0,0,0,0,-3.091,-3.0916,-3.0951,-3.0949,-3.0947,-3.0963,-3.0978,-3.102,-3.0939,-3.0941,-3.0931,-3.0928,-3.0965,-3.0969,-3.0981,-3.1057,-3.1058,-3.0981,-3.0984,-3.0986,-3.0987,0,0,0,0,0,0,0,-3.0908,-3.0914,-3.0986,-3.0952,-3.0949,-3.0935,-3.0936,-3.0986,-3.097,-3.0941,-3.0936,-3.094,-3.0964,-3.0977,-3.0981,-3.1059,-3.0981,-3.0985,-3.0987,-3.0989,-3.1209,-3.1212,0,0,0,0,0,0,-3.0908,-3.0913,-3.0985,-3.0987,-3.092,-3.0939,-3.0941,-3.0961,-3.097,-3.0968,-3.0942,-3.0937,-3.0971,-3.0976,-3.0982,-3.1085,-3.0986,-3.0989,-3.0992,-3.1206,-3.121,-3.1213,0,0,0,0,0,0,-3.0906,-3.0915,-3.0984,-3.0949,-3.0956,-3.0944,-3.0967,-3.0963,-3.0976,-3.0971,-3.0968,-3.0958,-3.0969,-3.0976,-3.1038,-3.1085,-3.0991,-3.0995,-3.1202,-3.1207,-3.1212,-3.1291,0,0,0,0,0,0,-3.0904,-3.0915,-3.0946,-3.095,-3.0958,-3.1038,-3.097,-3.0966,-3.0983,-3.0976,-3.0985,-3.0984,-3.0967,-3.1032,-3.1042,-3.1089,-3.0998,-3.1197,-3.1204,-3.121,-3.1284,-3.1298,-3.131,0,0,0,0,0,-3.09,-3.0969,-3.0948,-3.0958,-3.0997,-3.1041,-3.1046,-3.1024,-3.0987,-3.1019,-3.1016,-3.0983,-3.1078,-3.1039,-3.1049,-3.1098,-3.1194,-3.1202,-3.1209,-3.1278,-3.1295,-3.131,0,0,0,0,0,0,-3.0972,-3.0968,-3.0946,-3.1017,-3.103,-3.103,-3.107,-3.1043,-3.1068,-3.106,-3.1034,-3.1037,-3.1104,-3.1107,-3.1063,-3.1184,-3.113,-3.114,-3.1179,-3.1195,-3.1208,-3.1206,-3.1002,0,0,0,0,0,-3.0996,-3.1031,-3.1026,-3.1089,-3.1097,-3.1083,-3.1101,-3.1083,-3.1096,-3.1101,-3.1102,-3.1117,-3.115,-3.1173,-3.1203,-3.1284,-3.1286,-3.1324,-3.1337,-3.1348,-3.1357,-3.1401,-3.1418,-3.1238,-3.1238,-3.1238,0,0,-3.1047,-3.1049,-3.1072,-3.1104,-3.1111,-3.1149,-3.1087,-3.113,-3.1158,-3.1108,-3.1166,-3.1168,-3.1183,-3.1255,-3.1287,-3.126,-3.1407,-3.1357,-3.1366,-3.1369,-3.1411,-3.1428,-3.1443,-3.1243,-3.1243,-3.1242,0,0,-3.1157,-3.1162,-3.1215,-3.1225,-3.1237,-3.1227,-3.124,-3.1245,-3.1244,-3.1301,-3.1265,-3.1299,-3.1356,-3.1369,-3.1383,-3.15,-3.1471,-3.1511,-3.1579,-3.1623,-3.1637,-3.165,-3.1693,-3.1708,-3.152,-3.152,-3.152,0,-3.1219,-3.1272,-3.1247,-3.1292,-3.1307,-3.1263,-3.1318,-3.1329,-3.1351,-3.1364,-3.1333,-3.1404,-3.1411,-3.1486,-3.1515,-3.1528,-3.1543,-3.1509,-3.1637,-3.1649,-3.166,-3.1701,-3.1717,-3.1525,-3.1524,-3.1524,-3.1523,0,-3.1348,-3.1386,-3.1428,-3.1449,-3.147,-3.152,-3.1503,-3.1528,-3.1509,-3.1503,-3.1563,-3.157,-3.1601,-3.1618,-3.16,-3.1691,-3.1674,-3.1641,-3.1586,-3.1683,-3.1721,-3.1736,-3.1532,-3.153,-3.1528,-3.1527,0,0,-3.1504,-3.1511,-3.1527,-3.1537,-3.1548,-3.1577,-3.1626,-3.1656,-3.1677,-3.1695,-3.1736,-3.1786,-3.1755,-3.1771,-3.1755,-3.1794,-3.1887,-3.1755,-3.1755,-3.178,-3.199,-3.2015,-3.2033,-3.1868,-3.1871,-3.1874,-3.1989,0,-3.1614,-3.1696,-3.1675,-3.1758,-3.1793,-3.1752,-3.1795,-3.1808,-3.1804,-3.1835,-3.1832,-3.1868,-3.1824,-3.1834,-3.187,-3.1868,-3.1929,-3.186,-3.1908,-3.191,-3.1906,-3.2053,-3.208,-3.2188,-3.2003,-3.2006,-3.2008,0,-3.1753,-3.1775,-3.186,-3.1866,-3.1881,-3.1919,-3.1945,-3.1975,-3.1989,-3.1984,-3.2002,-3.1978,-3.2029,-3.1974,-3.2044,-3.1997,-3.2016,-3.2019,-3.2022,-3.2026,-3.1965,-3.2062,-3.2222,-3.2239,-3.203,-3.2029,-3.2027,0,-3.186,-3.191,-3.1968,-3.1978,-3.1986,-3.2014,-3.2019,-3.203,-3.2049,-3.2073,-3.2085,-3.2115,-3.2132,-3.2156,-3.2142,-3.2103,-3.2215,-3.2158,-3.2213,-3.2214,-3.2239,-3.2238,-3.2405,-3.2251,-3.225,-3.225,-3.225,0,-3.1985,-3.2039,-3.2016,-3.2052,-3.2112,-3.2089,-3.215,-3.215,-3.216,-3.2197,-3.2164,-3.2199,-3.2178,-3.2212,-3.2202,-3.2262,-3.227,-3.2268,-3.2265,-3.2271,-3.2272,-3.2283,-3.2276,-3.2254,-3.2253,-3.2253,-3.2252,0,-3.2114,-3.2101,-3.2161,-3.2164,-3.2166,-3.2211,-3.2214,-3.2248,-3.2242,-3.2289,-3.2299,-3.229,-3.2329,-3.2317,-3.2359,-3.2352,-3.2429,-3.2416,-3.2424,-3.2421,-3.2477,-3.2472,-3.2658,-3.2682,-3.2512,-3.2513,-3.2515,0,-3.2195,-3.2236,-3.2243,-3.2264,-3.2271,-3.2306,-3.2325,-3.2304,-3.2327,-3.2346,-3.2379,-3.2414,-3.2441,-3.2506,-3.2505,-3.2537,-3.2525,-3.2588,-3.253,-3.2536,-3.2527,-3.2525,-3.2529,-3.26,-3.2602,-3.2603,-3.2605,0,-3.234,-3.2332,-3.236,-3.2387,-3.2411,-3.2432,-3.2449,-3.2469,-3.245,-3.2477,-3.2515,-3.2536,-3.2579,-3.2616,-3.2645,-3.2652,-3.2627,-3.2623,-3.2638,-3.2645,-3.2648,-3.2648,-3.2456,-3.2619,-3.2618,-3.2616,-3.2616,-3.2615,-3.2448,-3.2483,-3.2493,-3.2527,-3.2538,-3.2555,-3.2587,-3.2586,-3.2617,-3.2649,-3.2635,-3.268,-3.2695,-3.2732,-3.2743,-3.2779,-3.2755,-3.2776,-3.2782,-3.2787,-3.2795,-3.2642,-3.2785,-3.2784,-3.2784,-3.2784,-3.2783,0,-3.2592,-3.2597,-3.2628,-3.2653,-3.268,-3.2652,-3.267,-3.2695,-3.2734,-3.2749,-3.2777,-3.2822,-3.2858,-3.286,-3.2893,-3.2922,-3.2911,-3.2932,-3.293,-3.2932,-3.2814,-3.2798,-3.294,-3.294,-3.294,-3.294,-3.294,-3.294,-3.267,-3.2728,-3.2721,-3.2784,-3.2789,-3.2831,-3.2845,-3.2861,-3.2873,-3.2925,-3.2953,-3.2954,-3.2964,-3.2999,-3.3031,-3.3031,-3.3045,-3.3071,-3.3066,-3.2956,-3.294,-3.2925,-3.291,-3.3074,-3.3074,-3.3181,-3.3182,-3.3183]},{"header":{"parameterUnit":"m.s-1","parameterCategory":1,"la1":30.2991,"la2":30.254,"lo1":-89.0895,"lo2":-89.0444,"dy":0.0017,"dx":0.0017,"nx":28,"ny":28,"refTime":"2025-02-11T03:00:00:Z","depth":0,"parameterNumber":3,"parameterNumberName":"V-component_of_WINDS"},"data":[0,0,0,0,0,0,0,0,0,0,0,0,0,0,0,0,0,0,0,0,0,0,0,0,0,0,0,0,0,0,0,0,0,0,0,0,0,0,0,0,0,0,0,0,0,0,0,0,0,0,0,0,0,0,0,0,0,0,-1.154,-1.1539,0,-1.147,-1.1469,-1.1469,-1.1442,-1.1442,-1.1443,-1.1443,-1.1365,-1.1362,-1.136,0,0,0,0,0,0,0,0,0,0,0,0,0,-1.1642,-1.164,-1.154,-1.1539,-1.1538,-1.147,-1.1469,-1.1468,-1.1442,-1.1442,-1.1443,-1.1443,-1.1365,-1.1363,-1.136,0,0,0,0,0,0,0,0,0,0,0,0,0,-1.1587,-1.164,-1.154,-1.1517,-1.1514,-1.147,-1.1469,-1.1468,-1.1442,-1.1442,-1.1443,-1.1443,-1.1366,-1.1363,-1.136,-1.1332,0,0,-1.1349,-1.1348,0,0,0,0,0,0,0,0,-1.1591,-1.1584,-1.1521,-1.1519,-1.1515,-1.1465,-1.1477,-1.1422,-1.1442,-1.1469,-1.1443,-1.1443,-1.1397,-1.1391,-1.1377,-1.1328,-1.1325,-1.1349,-1.1347,-1.1345,-1.1344,0,0,0,0,0,0,0,-1.1594,-1.1587,-1.1512,-1.152,-1.1517,-1.1507,-1.15,-1.1466,-1.1432,-1.1467,-1.1465,-1.1457,-1.1396,-1.1381,-1.1375,-1.1323,-1.1349,-1.1346,-1.1344,-1.1342,-1.1243,-1.1242,0,0,0,0,0,0,-1.1603,-1.159,-1.1514,-1.151,-1.1555,-1.1505,-1.1497,-1.1481,-1.1432,-1.1425,-1.1457,-1.1456,-1.1387,-1.1379,-1.1373,-1.1334,-1.1345,-1.1342,-1.134,-1.1243,-1.1242,-1.1242,0,0,0,0,0,0,-1.1605,-1.1597,-1.1517,-1.1549,-1.1539,-1.1503,-1.1485,-1.1479,-1.1464,-1.1425,-1.1418,-1.1449,-1.1387,-1.1377,-1.1341,-1.1331,-1.1341,-1.1337,-1.1244,-1.1243,-1.1242,-1.1258,0,0,0,0,0,0,-1.1608,-1.1598,-1.1589,-1.155,-1.1537,-1.149,-1.1485,-1.1478,-1.1459,-1.1458,-1.1415,-1.1408,-1.1386,-1.1347,-1.1338,-1.1326,-1.1335,-1.1245,-1.1244,-1.1242,-1.1258,-1.1258,-1.1257,0,0,0,0,0,-1.1612,-1.1596,-1.1589,-1.158,-1.1526,-1.149,-1.1482,-1.1459,-1.1459,-1.1448,-1.1422,-1.141,-1.1334,-1.1343,-1.1333,-1.132,-1.1245,-1.1244,-1.1243,-1.1258,-1.1258,-1.1257,0,0,0,0,0,0,-1.1633,-1.159,-1.1582,-1.1553,-1.1525,-1.1485,-1.1471,-1.1459,-1.143,-1.1429,-1.1399,-1.139,-1.1355,-1.1334,-1.1346,-1.1288,-1.1288,-1.1285,-1.1304,-1.1303,-1.1302,-1.1308,-1.1332,0,0,0,0,0,-1.1635,-1.1612,-1.1574,-1.1552,-1.1538,-1.1507,-1.1491,-1.1475,-1.1444,-1.1432,-1.1403,-1.1372,-1.1341,-1.1321,-1.129,-1.1255,-1.1243,-1.1241,-1.124,-1.124,-1.1237,-1.1213,-1.1211,-1.1237,-1.1238,-1.1238,0,0,-1.1637,-1.1611,-1.1598,-1.1555,-1.1532,-1.1505,-1.1498,-1.1471,-1.145,-1.1427,-1.1391,-1.1369,-1.1332,-1.1295,-1.1278,-1.1277,-1.1227,-1.1238,-1.1239,-1.1236,-1.1211,-1.1209,-1.1207,-1.1237,-1.1237,-1.1237,0,0,-1.1628,-1.1607,-1.1585,-1.1561,-1.1527,-1.1505,-1.15,-1.1461,-1.1446,-1.141,-1.1391,-1.1364,-1.1312,-1.1285,-1.1265,-1.1242,-1.1228,-1.1232,-1.123,-1.1207,-1.1204,-1.1202,-1.1191,-1.1188,-1.123,-1.123,-1.123,0,-1.1635,-1.1597,-1.1574,-1.1548,-1.1528,-1.1507,-1.1482,-1.146,-1.1416,-1.1401,-1.1401,-1.1332,-1.1306,-1.1261,-1.1256,-1.1241,-1.123,-1.1237,-1.1207,-1.1205,-1.1202,-1.1191,-1.1187,-1.123,-1.123,-1.123,-1.123,0,-1.1605,-1.1579,-1.1565,-1.1524,-1.1502,-1.1477,-1.1447,-1.1427,-1.1412,-1.139,-1.1351,-1.1319,-1.1279,-1.1268,-1.1253,-1.1219,-1.1219,-1.1214,-1.1212,-1.1201,-1.1189,-1.1185,-1.1231,-1.1231,-1.1231,-1.1231,0,0,-1.1609,-1.1555,-1.155,-1.1529,-1.1488,-1.1466,-1.1437,-1.14,-1.1382,-1.1352,-1.1325,-1.128,-1.1273,-1.125,-1.1231,-1.1211,-1.119,-1.1207,-1.1205,-1.1203,-1.1148,-1.1151,-1.1147,-1.1181,-1.1181,-1.118,-1.115,0,-1.1593,-1.1544,-1.1521,-1.1481,-1.1454,-1.1432,-1.1406,-1.1376,-1.1354,-1.1325,-1.1299,-1.1267,-1.1262,-1.1247,-1.1227,-1.1198,-1.1179,-1.12,-1.1152,-1.1151,-1.1161,-1.1142,-1.1146,-1.112,-1.1146,-1.1145,-1.1144,0,-1.1568,-1.1539,-1.1497,-1.1455,-1.1443,-1.1421,-1.1383,-1.1358,-1.1321,-1.1306,-1.1278,-1.126,-1.1225,-1.1227,-1.1176,-1.119,-1.1169,-1.1152,-1.115,-1.1143,-1.1146,-1.1132,-1.1111,-1.1106,-1.1138,-1.1138,-1.1139,0,-1.1573,-1.1522,-1.1489,-1.1473,-1.1425,-1.1409,-1.1388,-1.1352,-1.133,-1.1296,-1.128,-1.1242,-1.1221,-1.119,-1.1159,-1.1164,-1.111,-1.111,-1.1093,-1.1094,-1.1082,-1.1083,-1.1055,-1.1072,-1.1072,-1.1072,-1.1072,0,-1.1556,-1.1531,-1.149,-1.147,-1.1439,-1.1411,-1.138,-1.1356,-1.1324,-1.1296,-1.1274,-1.1247,-1.121,-1.1178,-1.1153,-1.1113,-1.1104,-1.1088,-1.1081,-1.1089,-1.109,-1.1074,-1.1074,-1.1071,-1.1071,-1.1071,-1.1072,0,-1.1556,-1.1529,-1.1491,-1.1448,-1.1436,-1.1415,-1.1376,-1.1354,-1.1329,-1.1294,-1.1283,-1.1244,-1.1204,-1.1172,-1.1119,-1.1103,-1.1059,-1.1053,-1.1072,-1.1069,-1.1052,-1.1053,-1.1011,-1.1002,-1.1027,-1.1027,-1.1027,0,-1.1548,-1.1527,-1.1482,-1.1462,-1.1442,-1.1411,-1.1388,-1.1358,-1.1334,-1.1289,-1.1271,-1.123,-1.1196,-1.1132,-1.1097,-1.1055,-1.1046,-1.1034,-1.104,-1.1047,-1.1043,-1.1044,-1.1039,-1.1033,-1.1033,-1.1033,-1.1033,0,-1.1534,-1.152,-1.149,-1.1453,-1.1427,-1.1397,-1.1365,-1.1349,-1.1312,-1.1286,-1.1246,-1.122,-1.1165,-1.1123,-1.1078,-1.1052,-1.1034,-1.1031,-1.1025,-1.1031,-1.1042,-1.1033,-1.1069,-1.1032,-1.1032,-1.1033,-1.1033,-1.1033,-1.1528,-1.1507,-1.1471,-1.1437,-1.141,-1.138,-1.1356,-1.1328,-1.1295,-1.125,-1.1233,-1.119,-1.115,-1.1087,-1.106,-1.1024,-1.1022,-1.1013,-1.101,-1.1008,-1.1008,-1.105,-1.1016,-1.1016,-1.1016,-1.1016,-1.1015,0,-1.1511,-1.1486,-1.1455,-1.1411,-1.1383,-1.1371,-1.1334,-1.131,-1.1274,-1.1239,-1.1205,-1.1156,-1.1115,-1.1075,-1.103,-1.1008,-1.0999,-1.0997,-1.0998,-1.0991,-1.1014,-1.1023,-1.1005,-1.1005,-1.1005,-1.1005,-1.1005,-1.1005,-1.1499,-1.1463,-1.1444,-1.1393,-1.1367,-1.1327,-1.1307,-1.1277,-1.1248,-1.1196,-1.1162,-1.1137,-1.1098,-1.1049,-1.1009,-1.0998,-1.0981,-1.0981,-1.0967,-1.0989,-1.099,-1.0991,-1.1,-1.0978,-1.0978,-1.0947,-1.0947,-1.0947]}]]